ECHOSTAR 6

Last updated on Thu May 31 2018 00:19:40 GMT+0000 (Coordinated Universal Time)

1 26402U 00038A 18150.85209906 -.00000128 00000-0 00000+0 0 9990 2 26402 4.8381 65.3431 0001154 4.6306 315.8583 0.98792395 65435
UTC large
Height (km)
Speed (km/s)
/
Latitude / Longitude
Inclination (degrees)
Orbital Period (minutes)
Azimuth
Elevation
Range (km)
Doppler Factor

Next 0 passes for location: London (51.5072 / 0.1276)

Sorry there are no passes over London.